Simultaneous Nadir Overpasses (SNOs) Predictions

Prediction of SNOs between GOES-15 and METOP-B Satellite Orbit:

Table of predicted SNOs for the next 14.0 days since TLE Epoch: 5/5/2017
Index Date Time (GOES-15) GOES-15 Lat,Lon METOP-B Lat,Lon Distance(km) Time Diff (sec)
1 05/05/2017 18:26:56 -0.10,-135.37 -0.36,-134.30 122.85 80
2 05/07/2017 06:45:56 0.10,-135.31 -0.70,-138.89 407.64 80
3 05/08/2017 06:27:56 0.10,-135.30 0.42,-133.90 159.46 80
4 05/09/2017 18:46:48 -0.10,-135.30 0.60,-138.46 360.46 80
5 05/10/2017 18:23:28 -0.10,-135.27 -0.52,-133.47 205.95 80
6 05/12/2017 06:42:27 0.11,-135.20 -0.55,-138.06 325.88 80
7 05/13/2017 06:24:28 0.11,-135.18 0.57,-133.06 240.33 80
8 05/14/2017 18:43:20 -0.11,-135.17 0.41,-137.64 280.72 80
9 05/15/2017 18:20:00 -0.12,-135.14 -0.65,-132.63 284.80 80
10 05/17/2017 06:39:00 0.12,-135.05 -0.36,-137.23 248.53 80
11 05/18/2017 06:21:01 0.13,-135.02 0.75,-132.24 316.83 80




NCC Satellite Simultaneous Nadir Overpasses (SNOs) Prediction Service
